When you browse on this site, cookies collect data to enhance your experience and personalize the content and advertising you see.
Visit our Privacy Policy to learn more. By continuing to use the site, you agree to this use of cookies and data.
  • In United Kingdom
  • List of Countries
  • For 7 days
  • Water Temperature
  • Satellite Maps
  • Weather Map
  • Weather Widgets
  • user-avatar
    Login

    Hourly Weather Al-Ahmadi

    Today, 25 April, Thursday

    Time Temperature Precipitation Wind Pressure Humidity
    00:00 +23°C° 0 mm 6 mps 755 mmHg 24%
    01:00 +22°C° 0 mm 6 mps 755 mmHg 25%
    02:00 +22°C° 0 mm 6 mps 755 mmHg 25%
    03:00 +21°C° 0 mm 6 mps 755 mmHg 25%
    04:00 +21°C° 0 mm 6 mps 755 mmHg 25%
    05:00 +21°C° 0 mm 7 mps 755 mmHg 25%
    06:00 +20°C° 0 mm 7 mps 755 mmHg 25%
    07:00 +22°C° 0 mm 7 mps 755 mmHg 22%
    08:00 +23°C° 0 mm 7 mps 755 mmHg 20%
    09:00 +24°C° 0 mm 7 mps 755 mmHg 18%
    10:00 +26°C° 0 mm 7 mps 755 mmHg 16%
    11:00 +27°C° 0 mm 7 mps 755 mmHg 15%
    12:00 +28°C° 0 mm 7 mps 755 mmHg 14%
    13:00 +29°C° 0 mm 7 mps 755 mmHg 13%
    14:00 +29°C° 0 mm 6 mps 754 mmHg 13%
    15:00 +30°C° 0 mm 6 mps 754 mmHg 13%
    16:00 +29°C° 0 mm 6 mps 753 mmHg 14%
    17:00 +29°C° 0 mm 6 mps 753 mmHg 16%
    18:00 +28°C° 0 mm 6 mps 753 mmHg 17%
    19:00 +28°C° 0 mm 6 mps 753 mmHg 18%
    20:00 +27°C° 0 mm 6 mps 753 mmHg 18%
    21:00 +27°C° 0 mm 5 mps 753 mmHg 19%
    22:00 +26°C° 0 mm 5 mps 753 mmHg 20%
    23:00 +26°C° 0 mm 5 mps 753 mmHg 20%

    Tomorrow, 26 April, Friday

    Time Temperature Precipitation Wind Pressure Humidity
    00:00 +25°C° 0 mm 5 mps 753 mmHg 21%
    01:00 +25°C° 0 mm 5 mps 753 mmHg 22%
    02:00 +23°C° 0 mm 5 mps 753 mmHg 22%
    03:00 +23°C° 0 mm 5 mps 752 mmHg 23%
    04:00 +23°C° 0 mm 5 mps 753 mmHg 23%
    05:00 +22°C° 0 mm 5 mps 753 mmHg 24%
    06:00 +22°C° 0 mm 5 mps 753 mmHg 24%
    07:00 +23°C° 0 mm 5 mps 753 mmHg 22%
    08:00 +26°C° 0 mm 5 mps 754 mmHg 20%
    09:00 +27°C° 0 mm 5 mps 754 mmHg 17%
    10:00 +28°C° 0 mm 5 mps 754 mmHg 16%
    11:00 +29°C° 0 mm 4 mps 754 mmHg 15%
    12:00 +30°C° 0 mm 4 mps 754 mmHg 14%
    13:00 +30°C° 0 mm 4 mps 753 mmHg 13%
    14:00 +32°C° 0 mm 4 mps 753 mmHg 13%
    15:00 +32°C° 0 mm 4 mps 752 mmHg 12%
    16:00 +31°C° 0 mm 3 mps 752 mmHg 12%
    17:00 +31°C° 0 mm 3 mps 752 mmHg 12%
    18:00 +30°C° 0 mm 3 mps 752 mmHg 13%
    19:00 +29°C° 0 mm 2 mps 752 mmHg 14%
    20:00 +28°C° 0 mm 2 mps 752 mmHg 15%
    21:00 +28°C° 0 mm 2 mps 753 mmHg 16%
    22:00 +27°C° 0 mm 2 mps 753 mmHg 17%
    23:00 +26°C° 0 mm 2 mps 753 mmHg 17%

    Day after tomorrow, 27 April, Saturday

    Time Temperature Precipitation Wind Pressure Humidity
    00:00 +26°C° 0 mm 2 mps 753 mmHg 18%
    01:00 +25°C° 0 mm 2 mps 753 mmHg 18%
    02:00 +25°C° 0 mm 1 mps 752 mmHg 18%
    03:00 +24°C° 0 mm 1 mps 752 mmHg 18%
    04:00 +24°C° 0 mm 2 mps 752 mmHg 17%
    05:00 +24°C° 0 mm 2 mps 752 mmHg 17%
    06:00 +24°C° 0 mm 2 mps 752 mmHg 17%
    07:00 +26°C° 0 mm 2 mps 753 mmHg 16%
    08:00 +27°C° 0 mm 2 mps 753 mmHg 14%
    09:00 +28°C° 0 mm 2 mps 754 mmHg 13%
    10:00 +29°C° 0 mm 1 mps 754 mmHg 13%
    11:00 +30°C° 0 mm 1 mps 754 mmHg 12%
    12:00 +31°C° 0 mm 1 mps 753 mmHg 12%
    13:00 +31°C° 0 mm 1 mps 753 mmHg 12%
    14:00 +32°C° 0 mm 2 mps 752 mmHg 12%
    15:00 +32°C° 0 mm 2 mps 752 mmHg 12%
    16:00 +33°C° 0 mm 3 mps 752 mmHg 12%
    17:00 +31°C° 0 mm 3 mps 751 mmHg 13%
    18:00 +31°C° 0 mm 3 mps 751 mmHg 14%
    19:00 +32°C° 0 mm 4 mps 752 mmHg 14%
    20:00 +30°C° 0 mm 4 mps 752 mmHg 15%
    21:00 +30°C° 0 mm 4 mps 752 mmHg 15%
    22:00 +29°C° 0 mm 3 mps 752 mmHg 16%
    23:00 +29°C° 0 mm 3 mps 752 mmHg 16%

    28 April, Sunday

    Time Temperature Precipitation Wind Pressure Humidity
    00:00 +29°C° 0 mm 2 mps 751 mmHg 16%
    01:00 +29°C° 0 mm 2 mps 751 mmHg 17%
    02:00 +28°C° 0 mm 1 mps 751 mmHg 17%
    03:00 +28°C° 0 mm 1 mps 751 mmHg 17%
    04:00 +27°C° 0 mm 3 mps 751 mmHg 21%
    05:00 +27°C° 0 mm 5 mps 751 mmHg 25%
    06:00 +26°C° 0 mm 7 mps 752 mmHg 29%
    07:00 +26°C° 0 mm 7 mps 752 mmHg 29%
    08:00 +27°C° 0 mm 6 mps 752 mmHg 29%
    09:00 +28°C° 0 mm 6 mps 753 mmHg 29%
    10:00 +28°C° 0 mm 7 mps 753 mmHg 28%
    11:00 +29°C° 0 mm 7 mps 753 mmHg 28%
    12:00 +29°C° 0 mm 8 mps 753 mmHg 27%
    13:00 +29°C° 0 mm 8 mps 753 mmHg 29%
    14:00 +28°C° 0 mm 9 mps 752 mmHg 31%
    15:00 +28°C° 0 mm 9 mps 752 mmHg 33%
    16:00 +27°C° 0 mm 8 mps 752 mmHg 35%
    17:00 +26°C° 0 mm 6 mps 752 mmHg 37%
    18:00 +26°C° 0 mm 5 mps 752 mmHg 39%
    19:00 +26°C° 0 mm 5 mps 752 mmHg 39%
    20:00 +25°C° 0 mm 4 mps 753 mmHg 40%
    21:00 +25°C° 0 mm 4 mps 753 mmHg 40%
    22:00 +25°C° 0 mm 3 mps 753 mmHg 40%
    23:00 +24°C° 0 mm 3 mps 753 mmHg 40%

    29 April, Monday

    Time Temperature Precipitation Wind Pressure Humidity
    00:00 +24°C° 0 mm 2 mps 753 mmHg 41%
    01:00 +24°C° 0 mm 2 mps 752 mmHg 39%
    02:00 +23°C° 0 mm 2 mps 752 mmHg 38%
    03:00 +23°C° 0 mm 2 mps 752 mmHg 36%
    04:00 +23°C° 0 mm 2 mps 752 mmHg 35%
    05:00 +24°C° 0 mm 3 mps 752 mmHg 33%
    06:00 +24°C° 0 mm 3 mps 753 mmHg 32%
    07:00 +25°C° 0 mm 3 mps 753 mmHg 28%
    08:00 +27°C° 0 mm 3 mps 754 mmHg 24%
    09:00 +28°C° 0 mm 2 mps 754 mmHg 20%
    10:00 +29°C° 0 mm 2 mps 753 mmHg 19%
    11:00 +31°C° 0 mm 2 mps 753 mmHg 18%
    12:00 +32°C° 0 mm 2 mps 753 mmHg 17%
    13:00 +34°C° 0 mm 2 mps 752 mmHg 16%
    14:00 +34°C° 0 mm 2 mps 751 mmHg 15%
    15:00 +35°C° 0 mm 2 mps 751 mmHg 13%
    16:00 +35°C° 0 mm 2 mps 751 mmHg 14%
    17:00 +35°C° 0 mm 2 mps 751 mmHg 14%
    18:00 +34°C° 0 mm 2 mps 750 mmHg 15%
    19:00 +32°C° 0 mm 2 mps 751 mmHg 16%
    20:00 +32°C° 0 mm 2 mps 751 mmHg 17%
    21:00 +31°C° 0 mm 2 mps 751 mmHg 18%
    22:00 +30°C° 0 mm 3 mps 751 mmHg 18%
    23:00 +30°C° 0 mm 4 mps 751 mmHg 18%

    30 April, Tuesday

    Time Temperature Precipitation Wind Pressure Humidity
    00:00 +30°C° 0 mm 4 mps 751 mmHg 18%
    01:00 +30°C° 0 mm 4 mps 750 mmHg 18%
    02:00 +29°C° 0 mm 4 mps 750 mmHg 18%
    03:00 +29°C° 0 mm 4 mps 750 mmHg 18%
    04:00 +29°C° 0 mm 4 mps 750 mmHg 18%
    05:00 +29°C° 0 mm 4 mps 751 mmHg 18%
    06:00 +29°C° 0 mm 3 mps 751 mmHg 18%
    07:00 +30°C° 0 mm 3 mps 751 mmHg 17%
    08:00 +33°C° 0 mm 3 mps 751 mmHg 15%
    09:00 +35°C° 0 mm 2 mps 751 mmHg 14%
    10:00 +36°C° 0 mm 2 mps 751 mmHg 13%
    11:00 +36°C° 0 mm 2 mps 751 mmHg 13%
    12:00 +37°C° 0 mm 2 mps 750 mmHg 13%
    13:00 +37°C° 0 mm 2 mps 750 mmHg 13%
    14:00 +37°C° 0 mm 1 mps 750 mmHg 13%
    15:00 +37°C° 0 mm 1 mps 749 mmHg 12%
    16:00 +37°C° 0 mm 1 mps 749 mmHg 13%
    17:00 +37°C° 0 mm 1 mps 749 mmHg 13%
    18:00 +38°C° 0 mm 2 mps 749 mmHg 13%
    19:00 +37°C° 0 mm 2 mps 749 mmHg 14%
    20:00 +36°C° 0 mm 2 mps 749 mmHg 15%
    21:00 +35°C° 0 mm 3 mps 749 mmHg 16%
    22:00 +34°C° 0 mm 3 mps 748 mmHg 16%
    23:00 +34°C° 0 mm 2 mps 748 mmHg 16%
    Show more